User: anonymous   Login
Location: Unspecified
(0.0000°N, 0.0000°E)
Time: 14:16:25
(UTC+00:00)
Language:

CORVUS BC1 - Orbit

View from above orbital plane
View from above orbital plane
View from above satellite
View from above satellite

Ground track
Ground track

The orbit data is extracted from the following two-line orbital elements,

1 42847U 17042Y   18267.71373371 +.00000066 +00000-0 +11807-4 0  9998
2 42847 097.5863 167.0043 0008181 217.2507 142.8145 14.91958438065208
Epoch (UTC): 24 September 2018 17:07:46
Eccentricity: 0.0008181
inclination: 97.5863°
perigee height: 586 km
apogee height: 597 km
right ascension of ascending node: 167.0043°
argument of perigee: 217.2507°
revolutions per day: 14.91958438
mean anomaly at epoch: 142.8145°
orbit number at epoch: 6520

The dashed part of the orbit path shows where the satellite is in the earth's shadow,  

DLR